APK77 KMSP-KMCO

Flight info

Callsign APK77
Flight time 2h 42m
Altitude 37000
Route ZMBRO7 ODI J30 BRIBE/N0480F360 EDENS/N0478F370 ENL PLESS Q19 HITMN THRSR ZJAYX GRNCH5
Aircraft B77W/H-SDE1E2E3FGHIJ2J3J4J5M1RWXY/LB1D1

Departure

Time 2026-04-21 16:27
Airport Minneapolis–Saint Paul International Airport / Wold–Chamberlain Field (KMSP)

Arrival

Time 2026-04-21 19:10
Airport Orlando International Airport (KMCO)
Time Latitude Longitude Altitude Speed Heading
2026-04-21 15:51 44.88078 -93.21056 841 ft 0 kts 22°
2026-04-21 16:18 44.88076 -93.21057 829 ft 1 kts 22°
2026-04-21 16:18 44.88063 -93.21064 834 ft 3 kts 19°
2026-04-21 16:18 44.88043 -93.21073 833 ft 3 kts 15°
2026-04-21 16:19 44.88024 -93.21080 829 ft 3 kts 15°
2026-04-21 16:19 44.88011 -93.21085 833 ft 2 kts 18°
2026-04-21 16:19 44.87995 -93.21094 829 ft 3 kts 44°
2026-04-21 16:19 44.87988 -93.21110 829 ft 3 kts 107°
2026-04-21 16:20 44.87997 -93.21134 829 ft 3 kts 127°
2026-04-21 16:20 44.88005 -93.21150 829 ft 1 kts 120°
2026-04-21 16:20 44.88008 -93.21156 829 ft 0 kts 120°
2026-04-21 16:23 44.87994 -93.21124 829 ft 11 kts 120°
2026-04-21 16:23 44.87933 -93.20982 829 ft 19 kts 122°
2026-04-21 16:23 44.87862 -93.20822 829 ft 19 kts 121°
2026-04-21 16:23 44.87792 -93.20657 829 ft 19 kts 121°
2026-04-21 16:24 44.87722 -93.20495 829 ft 19 kts 122°
2026-04-21 16:24 44.87651 -93.20333 829 ft 19 kts 121°
2026-04-21 16:24 44.87584 -93.20180 829 ft 14 kts 121°
2026-04-21 16:24 44.87538 -93.20074 829 ft 10 kts 121°
2026-04-21 16:25 44.87485 -93.20034 829 ft 9 kts 186°
2026-04-21 16:25 44.87437 -93.20070 831 ft 8 kts 212°
2026-04-21 16:25 44.87383 -93.20120 833 ft 9 kts 222°
2026-04-21 16:25 44.87379 -93.20185 831 ft 6 kts 300°
2026-04-21 16:26 44.87385 -93.20197 832 ft 1 kts 300°
2026-04-21 16:26 44.87386 -93.20201 827 ft 0 kts 301°
2026-04-21 16:26 44.87387 -93.20203 827 ft 3 kts 301°
2026-04-21 16:27 44.87501 -93.20466 833 ft 71 kts 301°
2026-04-21 16:27 44.87895 -93.21374 828 ft 144 kts 301°
2026-04-21 16:27 44.88511 -93.22797 1007 ft 184 kts 301°
2026-04-21 16:27 44.89145 -93.24303 1813 ft 179 kts 299°
2026-04-21 16:28 44.89498 -93.26031 2362 ft 191 kts 265°
2026-04-21 16:28 44.89034 -93.27748 2945 ft 197 kts 231°
2026-04-21 16:28 44.87837 -93.28822 3270 ft 219 kts 191°
2026-04-21 16:28 44.86270 -93.28554 3555 ft 246 kts 155°
2026-04-21 16:29 44.84877 -93.27085 4097 ft 257 kts 136°
2026-04-21 16:29 44.83557 -93.25265 4856 ft 266 kts 135°
2026-04-21 16:29 44.82247 -93.23418 5681 ft 272 kts 135°
2026-04-21 16:29 44.80906 -93.21507 6596 ft 275 kts 135°
2026-04-21 16:30 44.79557 -93.19585 7471 ft 278 kts 135°
2026-04-21 16:30 44.78188 -93.17638 8317 ft 282 kts 135°
2026-04-21 16:30 44.76793 -93.15662 9138 ft 286 kts 135°
2026-04-21 16:30 44.75386 -93.13671 9943 ft 289 kts 135°
2026-04-21 16:31 44.73944 -93.11639 10719 ft 298 kts 135°
2026-04-21 16:31 44.72774 -93.09991 10971 ft 318 kts 135°
2026-04-21 16:31 44.71141 -93.07697 11190 ft 346 kts 135°
2026-04-21 16:31 44.69370 -93.05211 11506 ft 370 kts 135°
2026-04-21 16:32 44.67520 -93.02616 12286 ft 380 kts 135°
2026-04-21 16:32 44.65628 -92.99964 13228 ft 387 kts 135°
2026-04-21 16:32 44.63710 -92.97279 14213 ft 392 kts 135°
2026-04-21 16:32 44.61768 -92.94564 15173 ft 397 kts 135°
2026-04-21 16:33 44.59799 -92.91814 16081 ft 402 kts 135°
2026-04-21 16:33 44.57802 -92.89028 16959 ft 408 kts 135°
2026-04-21 16:33 44.55799 -92.86237 17816 ft 413 kts 135°
2026-04-21 16:33 44.53754 -92.83388 18652 ft 418 kts 135°
2026-04-21 16:34 44.51672 -92.80490 19463 ft 423 kts 135°
2026-04-21 16:34 44.49569 -92.77569 20248 ft 428 kts 135°
2026-04-21 16:34 44.47491 -92.74620 20988 ft 433 kts 132°
2026-04-21 16:34 44.45568 -92.71341 21718 ft 438 kts 126°
2026-04-21 16:35 44.43896 -92.67765 22415 ft 443 kts 121°
2026-04-21 16:35 44.42317 -92.64022 23080 ft 448 kts 120°
2026-04-21 16:35 44.40788 -92.60374 23731 ft 452 kts 120°
2026-04-21 16:35 44.39209 -92.56631 24340 ft 457 kts 121°
2026-04-21 16:36 44.37580 -92.52802 24959 ft 461 kts 121°
2026-04-21 16:36 44.35921 -92.48930 25564 ft 465 kts 121°
2026-04-21 16:36 44.34249 -92.45042 26119 ft 469 kts 121°
2026-04-21 16:36 44.32559 -92.41122 26666 ft 473 kts 121°
2026-04-21 16:37 44.30857 -92.37184 27196 ft 477 kts 121°
2026-04-21 16:37 44.29131 -92.33196 27703 ft 480 kts 121°
2026-04-21 16:37 44.27399 -92.29199 28194 ft 484 kts 121°
2026-04-21 16:37 44.25768 -92.25436 28622 ft 487 kts 121°
2026-04-21 16:38 44.24011 -92.21390 29045 ft 490 kts 121°
2026-04-21 16:38 44.22235 -92.17303 29447 ft 493 kts 121°
2026-04-21 16:38 44.20450 -92.13201 29824 ft 496 kts 121°
2026-04-21 16:38 44.18658 -92.09090 30316 ft 495 kts 121°
2026-04-21 16:39 44.16870 -92.04992 30858 ft 493 kts 121°
2026-04-21 16:39 44.15091 -92.00921 31413 ft 491 kts 121°
2026-04-21 16:39 44.13318 -91.96872 31923 ft 490 kts 121°
2026-04-21 16:39 44.11544 -91.92823 32344 ft 490 kts 121°
2026-04-21 16:40 44.09766 -91.88772 32772 ft 490 kts 121°
2026-04-21 16:40 44.07993 -91.84740 33228 ft 488 kts 121°
2026-04-21 16:40 44.06247 -91.80772 33662 ft 487 kts 121°
2026-04-21 16:40 44.04477 -91.76755 34060 ft 487 kts 121°
2026-04-21 16:41 44.03283 -91.74049 34344 ft 486 kts 121°
2026-04-21 16:41 44.00939 -91.68745 34855 ft 485 kts 122°
2026-04-21 16:41 43.99173 -91.64754 35210 ft 485 kts 122°
2026-04-21 16:41 43.97409 -91.60772 35584 ft 484 kts 122°
2026-04-21 16:42 43.95652 -91.56810 35926 ft 483 kts 122°
2026-04-21 16:42 43.94689 -91.54641 36106 ft 483 kts 122°
2026-04-21 16:42 43.92927 -91.50685 36433 ft 482 kts 122°
2026-04-21 16:42 43.91011 -91.46856 36691 ft 483 kts 128°
2026-04-21 16:43 43.88832 -91.43302 36904 ft 484 kts 134°
2026-04-21 16:43 43.84092 -91.36669 36997 ft 483 kts 135°
2026-04-21 16:44 43.79369 -91.30141 36996 ft 482 kts 135°
2026-04-21 16:44 43.74637 -91.23556 37004 ft 482 kts 135°
2026-04-21 16:45 43.69919 -91.16966 37001 ft 482 kts 135°
2026-04-21 16:45 43.65196 -91.10377 37003 ft 482 kts 135°
2026-04-21 16:46 43.60466 -91.03797 37001 ft 483 kts 135°
2026-04-21 16:46 43.55734 -90.97231 37000 ft 483 kts 135°
2026-04-21 16:47 43.51025 -90.90712 37003 ft 483 kts 135°
2026-04-21 16:47 43.46285 -90.84167 37002 ft 483 kts 135°
2026-04-21 16:48 43.41540 -90.77630 37000 ft 483 kts 135°
2026-04-21 16:48 43.36790 -90.71101 37001 ft 482 kts 135°
2026-04-21 16:49 43.32038 -90.64584 37002 ft 482 kts 135°
2026-04-21 16:49 43.28085 -90.59175 37000 ft 482 kts 135°
2026-04-21 16:50 43.23322 -90.52670 37002 ft 482 kts 135°
2026-04-21 16:50 43.18588 -90.46220 37000 ft 482 kts 135°
2026-04-21 16:51 43.13826 -90.39745 37001 ft 482 kts 135°
2026-04-21 16:51 43.09049 -90.33277 37003 ft 483 kts 135°
2026-04-21 16:52 43.04269 -90.26826 37001 ft 482 kts 135°
2026-04-21 16:52 42.99490 -90.20388 37003 ft 482 kts 135°
2026-04-21 16:53 42.94732 -90.13989 37003 ft 483 kts 135°
2026-04-21 16:53 42.89937 -90.07555 37003 ft 483 kts 135°
2026-04-21 16:54 42.85149 -90.01143 36999 ft 483 kts 136°
2026-04-21 16:54 42.79856 -89.95691 37008 ft 479 kts 158°
2026-04-21 16:54 42.76661 -89.94399 37007 ft 479 kts 171°
2026-04-21 16:55 42.73339 -89.94190 37001 ft 476 kts 183°
2026-04-21 16:55 42.66680 -89.94741 37007 ft 481 kts 184°
2026-04-21 16:56 42.59986 -89.95291 37003 ft 481 kts 183°
2026-04-21 16:56 42.53296 -89.95769 36999 ft 481 kts 183°
2026-04-21 16:57 42.46613 -89.96211 37002 ft 481 kts 183°
2026-04-21 16:57 42.39963 -89.96643 37001 ft 481 kts 183°
2026-04-21 16:58 42.33260 -89.97079 37003 ft 481 kts 183°
2026-04-21 16:58 42.26579 -89.97516 37001 ft 481 kts 183°
2026-04-21 16:59 42.19888 -89.97954 37002 ft 481 kts 183°
2026-04-21 16:59 42.13253 -89.98385 37000 ft 481 kts 183°
2026-04-21 17:00 42.06562 -89.98821 37000 ft 480 kts 183°
2026-04-21 17:00 42.00998 -89.99183 37001 ft 480 kts 183°
2026-04-21 17:01 41.93191 -89.99688 37001 ft 480 kts 183°
2026-04-21 17:01 41.86509 -90.00119 37001 ft 480 kts 183°
2026-04-21 17:02 41.79835 -90.00550 37002 ft 480 kts 183°
2026-04-21 17:02 41.73154 -90.00980 37000 ft 480 kts 183°
2026-04-21 17:03 41.66476 -90.01408 37002 ft 480 kts 183°
2026-04-21 17:03 41.59799 -90.01836 37000 ft 480 kts 183°
2026-04-21 17:04 41.53171 -90.02261 37002 ft 480 kts 183°
2026-04-21 17:04 41.46488 -90.02687 37001 ft 480 kts 183°
2026-04-21 17:05 41.39805 -90.03112 37002 ft 480 kts 183°
2026-04-21 17:05 41.33130 -90.03537 37000 ft 480 kts 183°
2026-04-21 17:06 41.26446 -90.03961 37002 ft 480 kts 183°
2026-04-21 17:06 41.19804 -90.04382 37002 ft 481 kts 183°
2026-04-21 17:07 41.13113 -90.04573 36998 ft 481 kts 176°
2026-04-21 17:07 41.06502 -90.03257 36997 ft 481 kts 166°
2026-04-21 17:08 41.00025 -90.01010 37003 ft 481 kts 165°
2026-04-21 17:08 40.93562 -89.98742 37003 ft 481 kts 165°
2026-04-21 17:09 40.83845 -89.95397 37001 ft 481 kts 166°
2026-04-21 17:09 40.77352 -89.93186 37002 ft 481 kts 166°
2026-04-21 17:10 40.70865 -89.90984 37002 ft 481 kts 166°
2026-04-21 17:10 40.64429 -89.88802 37001 ft 481 kts 166°
2026-04-21 17:11 40.57933 -89.86604 37003 ft 481 kts 166°
2026-04-21 17:11 40.51452 -89.84414 37001 ft 481 kts 166°
2026-04-21 17:12 40.44976 -89.82230 37000 ft 480 kts 166°
2026-04-21 17:12 40.38499 -89.80050 37003 ft 481 kts 166°
2026-04-21 17:13 40.32024 -89.77876 36999 ft 481 kts 166°
2026-04-21 17:13 40.25535 -89.75701 37002 ft 481 kts 166°
2026-04-21 17:14 40.19049 -89.73532 37001 ft 481 kts 166°
2026-04-21 17:14 40.12570 -89.71369 37003 ft 481 kts 166°
2026-04-21 17:15 40.06125 -89.69222 37001 ft 481 kts 166°
2026-04-21 17:15 39.99640 -89.67066 37001 ft 481 kts 166°
2026-04-21 17:16 39.93151 -89.64912 37002 ft 481 kts 166°
2026-04-21 17:16 39.86653 -89.62760 37003 ft 481 kts 166°
2026-04-21 17:17 39.80169 -89.60616 37000 ft 481 kts 166°
2026-04-21 17:17 39.73680 -89.58475 37002 ft 481 kts 166°
2026-04-21 17:18 39.67195 -89.56339 37001 ft 481 kts 166°
2026-04-21 17:18 39.60738 -89.54218 37000 ft 481 kts 166°
2026-04-21 17:19 39.54247 -89.52089 37001 ft 481 kts 166°
2026-04-21 17:19 39.47757 -89.49964 37001 ft 481 kts 166°
2026-04-21 17:20 39.41265 -89.47842 37002 ft 481 kts 166°
2026-04-21 17:20 39.34774 -89.45725 37001 ft 481 kts 166°
2026-04-21 17:21 39.28326 -89.43626 37002 ft 481 kts 166°
2026-04-21 17:21 39.21837 -89.41518 37001 ft 481 kts 166°
2026-04-21 17:22 39.15339 -89.39411 37001 ft 481 kts 166°
2026-04-21 17:22 39.08848 -89.37310 37003 ft 481 kts 166°
2026-04-21 17:23 39.02359 -89.35214 37002 ft 481 kts 166°
2026-04-21 17:23 38.95860 -89.33118 37001 ft 481 kts 166°
2026-04-21 17:24 38.89357 -89.31026 37002 ft 481 kts 166°
2026-04-21 17:24 38.82904 -89.28953 37001 ft 481 kts 166°
2026-04-21 17:25 38.76406 -89.26869 37003 ft 481 kts 166°
2026-04-21 17:25 38.69913 -89.24791 36999 ft 481 kts 166°
2026-04-21 17:26 38.63419 -89.22717 37002 ft 481 kts 166°
2026-04-21 17:26 38.56974 -89.20662 37001 ft 481 kts 166°
2026-04-21 17:27 38.50475 -89.18593 37001 ft 481 kts 166°
2026-04-21 17:27 38.43980 -89.16529 37000 ft 481 kts 166°
2026-04-21 17:28 38.37490 -89.14455 37002 ft 481 kts 166°
2026-04-21 17:28 38.30998 -89.12351 37001 ft 481 kts 166°
2026-04-21 17:29 38.24509 -89.10250 37001 ft 481 kts 166°
2026-04-21 17:29 38.18059 -89.08170 37001 ft 481 kts 166°
2026-04-21 17:30 38.11571 -89.06083 37000 ft 481 kts 166°
2026-04-21 17:30 38.05088 -89.04002 37002 ft 481 kts 166°
2026-04-21 17:31 37.98601 -89.01923 37002 ft 481 kts 166°
2026-04-21 17:31 37.92113 -88.99847 36999 ft 480 kts 166°
2026-04-21 17:32 37.85636 -88.97756 36998 ft 479 kts 163°
2026-04-21 17:32 37.82547 -88.96186 36997 ft 480 kts 152°
2026-04-21 17:32 37.79711 -88.93959 37011 ft 480 kts 143°
2026-04-21 17:33 37.74946 -88.88057 37011 ft 481 kts 131°
2026-04-21 17:33 37.70536 -88.81674 36999 ft 482 kts 131°
2026-04-21 17:34 37.66072 -88.75361 37002 ft 482 kts 132°
2026-04-21 17:34 37.62337 -88.70152 37000 ft 482 kts 132°
2026-04-21 17:35 37.57115 -88.62862 36999 ft 482 kts 132°
2026-04-21 17:35 37.52622 -88.56589 37003 ft 482 kts 132°
2026-04-21 17:36 37.48858 -88.51342 37001 ft 482 kts 132°
2026-04-21 17:36 37.44386 -88.45121 37005 ft 482 kts 132°
2026-04-21 17:37 37.39889 -88.38877 36999 ft 482 kts 132°
2026-04-21 17:37 37.35387 -88.32638 37003 ft 482 kts 132°
2026-04-21 17:38 37.25938 -88.19591 37001 ft 482 kts 132°
2026-04-21 17:39 37.21415 -88.13369 37002 ft 482 kts 132°
2026-04-21 17:39 37.16924 -88.07202 37002 ft 482 kts 133°
2026-04-21 17:40 37.12404 -88.01005 37000 ft 482 kts 133°
2026-04-21 17:40 37.07877 -87.94809 37002 ft 482 kts 133°
2026-04-21 17:41 37.03347 -87.88622 37001 ft 482 kts 133°
2026-04-21 17:41 36.98812 -87.82440 37002 ft 482 kts 133°
2026-04-21 17:42 36.94275 -87.76266 37001 ft 482 kts 133°
2026-04-21 17:42 36.89760 -87.70133 37000 ft 482 kts 133°
2026-04-21 17:43 36.85217 -87.63975 37001 ft 482 kts 133°
2026-04-21 17:43 36.80669 -87.57821 37001 ft 482 kts 133°
2026-04-21 17:44 36.76117 -87.51673 37003 ft 482 kts 133°
2026-04-21 17:44 36.71567 -87.45539 37000 ft 482 kts 133°
2026-04-21 17:45 36.67007 -87.39401 37002 ft 482 kts 133°
2026-04-21 17:45 36.62442 -87.33268 37003 ft 482 kts 133°
2026-04-21 17:46 36.57908 -87.27193 37000 ft 482 kts 133°
2026-04-21 17:46 36.53345 -87.21091 37004 ft 482 kts 133°
2026-04-21 17:47 36.48775 -87.14988 37000 ft 482 kts 133°
2026-04-21 17:47 36.44201 -87.08890 37000 ft 482 kts 133°
2026-04-21 17:48 36.39624 -87.02797 37002 ft 482 kts 133°
2026-04-21 17:48 36.35403 -86.97190 37003 ft 482 kts 133°
2026-04-21 17:49 36.30841 -86.91140 37000 ft 482 kts 133°
2026-04-21 17:49 36.26249 -86.85060 37005 ft 482 kts 133°
2026-04-21 17:50 36.21660 -86.78995 36999 ft 482 kts 133°
2026-04-21 17:50 36.17071 -86.72941 37002 ft 482 kts 133°
2026-04-21 17:51 36.12309 -86.67125 37002 ft 481 kts 141°
2026-04-21 17:51 36.07000 -86.62150 37010 ft 482 kts 143°
2026-04-21 17:52 36.01608 -86.57210 37000 ft 482 kts 143°
2026-04-21 17:52 35.96232 -86.52258 37001 ft 482 kts 143°
2026-04-21 17:53 35.90872 -86.47297 37002 ft 482 kts 143°
2026-04-21 17:53 35.85513 -86.42336 37001 ft 482 kts 143°
2026-04-21 17:54 35.80145 -86.37374 37002 ft 482 kts 143°
2026-04-21 17:54 35.74775 -86.32421 37002 ft 482 kts 143°
2026-04-21 17:55 35.69437 -86.27507 37001 ft 482 kts 143°
2026-04-21 17:55 35.64066 -86.22571 37000 ft 483 kts 143°
2026-04-21 17:56 35.58679 -86.17629 36999 ft 483 kts 143°
2026-04-21 17:56 35.53284 -86.12688 37002 ft 483 kts 143°
2026-04-21 17:57 35.48807 -86.08595 37002 ft 483 kts 143°
2026-04-21 17:57 35.43415 -86.03672 37001 ft 483 kts 143°
2026-04-21 17:58 35.38017 -85.98752 37004 ft 483 kts 143°
2026-04-21 17:58 35.32620 -85.93842 37001 ft 483 kts 143°
2026-04-21 17:59 35.27223 -85.88940 37004 ft 483 kts 143°
2026-04-21 17:59 35.21819 -85.84039 37001 ft 484 kts 143°
2026-04-21 18:00 35.16449 -85.79178 37007 ft 484 kts 143°
2026-04-21 18:00 35.11047 -85.74297 36997 ft 482 kts 143°
2026-04-21 18:01 35.05650 -85.69427 37002 ft 483 kts 143°
2026-04-21 18:01 35.00239 -85.64553 36999 ft 482 kts 143°
2026-04-21 18:02 34.94837 -85.59696 36999 ft 483 kts 143°
2026-04-21 18:02 34.89417 -85.54830 37004 ft 484 kts 144°
2026-04-21 18:03 34.84033 -85.50006 37002 ft 483 kts 144°
2026-04-21 18:03 34.78606 -85.45150 37000 ft 484 kts 144°
2026-04-21 18:04 34.73169 -85.40294 37007 ft 484 kts 144°
2026-04-21 18:04 34.67742 -85.35455 36996 ft 483 kts 144°
2026-04-21 18:05 34.62321 -85.30629 37002 ft 482 kts 144°
2026-04-21 18:05 34.56930 -85.25838 37003 ft 482 kts 144°
2026-04-21 18:06 34.51509 -85.21028 37003 ft 482 kts 144°
2026-04-21 18:06 34.46089 -85.16227 37002 ft 482 kts 144°
2026-04-21 18:07 34.40662 -85.11428 37000 ft 482 kts 144°
2026-04-21 18:07 34.35232 -85.06633 37003 ft 482 kts 144°
2026-04-21 18:08 34.29854 -85.01893 36999 ft 482 kts 144°
2026-04-21 18:08 34.24414 -84.97106 37004 ft 482 kts 144°
2026-04-21 18:09 34.18990 -84.92340 37000 ft 482 kts 144°
2026-04-21 18:09 34.13553 -84.87570 36999 ft 482 kts 144°
2026-04-21 18:10 34.08121 -84.82813 37001 ft 482 kts 144°
2026-04-21 18:10 34.02721 -84.78092 37001 ft 483 kts 144°
2026-04-21 18:11 33.97412 -84.73457 37001 ft 483 kts 144°
2026-04-21 18:11 33.91955 -84.68701 37002 ft 483 kts 144°
2026-04-21 18:12 33.86517 -84.63969 37001 ft 483 kts 144°
2026-04-21 18:12 33.81103 -84.59265 37001 ft 483 kts 144°
2026-04-21 18:13 33.75653 -84.54537 37003 ft 483 kts 144°
2026-04-21 18:13 33.70202 -84.49814 37003 ft 482 kts 144°
2026-04-21 18:14 33.61934 -84.42899 36999 ft 482 kts 150°
2026-04-21 18:15 33.55958 -84.39249 37009 ft 482 kts 154°
2026-04-21 18:15 33.49964 -84.35731 37001 ft 482 kts 154°
2026-04-21 18:16 33.43937 -84.32172 37001 ft 482 kts 154°
2026-04-21 18:16 33.37925 -84.28597 37003 ft 482 kts 154°
2026-04-21 18:17 33.31914 -84.25019 37000 ft 482 kts 154°
2026-04-21 18:17 33.25959 -84.21481 37003 ft 482 kts 154°
2026-04-21 18:18 33.19980 -84.17934 37000 ft 482 kts 154°
2026-04-21 18:18 33.13972 -84.14376 37000 ft 482 kts 154°
2026-04-21 18:19 33.07952 -84.10818 37002 ft 482 kts 154°
2026-04-21 18:19 33.01933 -84.07265 37002 ft 482 kts 154°
2026-04-21 18:20 32.95921 -84.03721 37002 ft 482 kts 154°
2026-04-21 18:20 32.90055 -84.00269 37000 ft 482 kts 154°
2026-04-21 18:21 32.84081 -83.96758 37001 ft 481 kts 154°
2026-04-21 18:21 32.78073 -83.93233 37004 ft 481 kts 154°
2026-04-21 18:22 32.72061 -83.89711 36999 ft 481 kts 154°
2026-04-21 18:22 32.66055 -83.86198 37001 ft 481 kts 154°
2026-04-21 18:23 32.60043 -83.82687 37003 ft 481 kts 154°
2026-04-21 18:23 32.54034 -83.79182 37001 ft 481 kts 154°
2026-04-21 18:24 32.48018 -83.75678 37003 ft 481 kts 154°
2026-04-21 18:24 32.42001 -83.72180 37002 ft 481 kts 154°
2026-04-21 18:25 32.35992 -83.68691 37002 ft 481 kts 154°
2026-04-21 18:25 32.30020 -83.65229 37001 ft 481 kts 154°
2026-04-21 18:26 32.24000 -83.61744 37001 ft 481 kts 154°
2026-04-21 18:26 32.17989 -83.58269 37002 ft 481 kts 154°
2026-04-21 18:27 32.11972 -83.54797 37001 ft 481 kts 154°
2026-04-21 18:27 32.05951 -83.51326 37000 ft 481 kts 154°
2026-04-21 18:28 31.99934 -83.47864 37001 ft 481 kts 154°
2026-04-21 18:28 31.93917 -83.44406 37002 ft 481 kts 154°
2026-04-21 18:29 31.87894 -83.40950 37001 ft 481 kts 154°
2026-04-21 18:29 31.81913 -83.37523 37001 ft 481 kts 154°
2026-04-21 18:30 31.75901 -83.34082 37004 ft 481 kts 154°
2026-04-21 18:30 31.69873 -83.30638 36999 ft 481 kts 154°
2026-04-21 18:31 31.63852 -83.27202 37004 ft 481 kts 154°
2026-04-21 18:31 31.57791 -83.23840 37000 ft 481 kts 155°
2026-04-21 18:32 31.51719 -83.20559 37003 ft 481 kts 155°
2026-04-21 18:32 31.45632 -83.17270 37000 ft 481 kts 155°
2026-04-21 18:33 31.39555 -83.13976 36999 ft 481 kts 155°
2026-04-21 18:33 31.33486 -83.10684 37003 ft 481 kts 155°
2026-04-21 18:34 31.27409 -83.07391 37003 ft 481 kts 155°
2026-04-21 18:34 31.21371 -83.04126 37002 ft 481 kts 155°
2026-04-21 18:35 31.16320 -83.01397 37000 ft 481 kts 155°
2026-04-21 18:35 31.09221 -82.97568 37001 ft 481 kts 155°
2026-04-21 18:36 31.03146 -82.94297 37000 ft 481 kts 155°
2026-04-21 18:36 30.97067 -82.91027 37004 ft 481 kts 155°
2026-04-21 18:37 30.90989 -82.87764 37000 ft 481 kts 155°
2026-04-21 18:37 30.84912 -82.84506 37002 ft 481 kts 155°
2026-04-21 18:38 30.78833 -82.81250 37002 ft 481 kts 155°
2026-04-21 18:38 30.72753 -82.77999 37002 ft 481 kts 155°
2026-04-21 18:39 30.66672 -82.74751 37002 ft 481 kts 155°
2026-04-21 18:39 30.60593 -82.71509 37002 ft 481 kts 155°
2026-04-21 18:40 30.54546 -82.68289 37001 ft 481 kts 155°
2026-04-21 18:40 30.49488 -82.65599 37003 ft 481 kts 155°
2026-04-21 18:41 30.42367 -82.61817 37003 ft 481 kts 155°
2026-04-21 18:41 30.36285 -82.58591 36999 ft 481 kts 155°
2026-04-21 18:42 30.30213 -82.55376 37003 ft 481 kts 155°
2026-04-21 18:42 30.25150 -82.52698 37001 ft 481 kts 155°
2026-04-21 18:43 30.18049 -82.48947 37004 ft 481 kts 155°
2026-04-21 18:43 30.12992 -82.46279 36999 ft 481 kts 155°
2026-04-21 18:44 30.06906 -82.43073 37000 ft 481 kts 155°
2026-04-21 18:44 30.00807 -82.39864 37002 ft 481 kts 155°
2026-04-21 18:45 29.94714 -82.36663 36873 ft 483 kts 155°
2026-04-21 18:45 29.91623 -82.35040 36085 ft 491 kts 155°
2026-04-21 18:45 29.88520 -82.33413 35347 ft 489 kts 155°
2026-04-21 18:45 29.85418 -82.31787 34523 ft 489 kts 155°
2026-04-21 18:46 29.82363 -82.30187 33695 ft 489 kts 156°
2026-04-21 18:46 29.79267 -82.28566 32812 ft 489 kts 156°
2026-04-21 18:46 29.76168 -82.26945 31897 ft 489 kts 156°
2026-04-21 18:46 29.73064 -82.25322 30948 ft 490 kts 156°
2026-04-21 18:47 29.69973 -82.23708 30222 ft 486 kts 156°
2026-04-21 18:47 29.66914 -82.22111 29603 ft 479 kts 156°
2026-04-21 18:47 29.63895 -82.20536 28992 ft 473 kts 156°
2026-04-21 18:47 29.60909 -82.18979 28380 ft 468 kts 156°
2026-04-21 18:48 29.57958 -82.17441 27778 ft 463 kts 156°
2026-04-21 18:48 29.55034 -82.15919 27194 ft 457 kts 156°
2026-04-21 18:48 29.52156 -82.14422 26616 ft 452 kts 156°
2026-04-21 18:48 29.49302 -82.12937 26029 ft 448 kts 156°
2026-04-21 18:49 29.46514 -82.11488 25465 ft 443 kts 156°
2026-04-21 18:49 29.43715 -82.10034 24894 ft 439 kts 156°
2026-04-21 18:49 29.41844 -82.09063 24517 ft 436 kts 156°
2026-04-21 18:49 29.38208 -82.07176 23767 ft 431 kts 156°
2026-04-21 18:50 29.35485 -82.05764 23204 ft 427 kts 156°
2026-04-21 18:50 29.32781 -82.04363 22641 ft 424 kts 156°
2026-04-21 18:50 29.30101 -82.02976 22086 ft 420 kts 156°
2026-04-21 18:50 29.27448 -82.01603 21537 ft 417 kts 156°
2026-04-21 18:51 29.24812 -82.00239 20985 ft 413 kts 156°
2026-04-21 18:51 29.22232 -81.98905 20452 ft 410 kts 156°
2026-04-21 18:51 29.19647 -81.97569 19907 ft 407 kts 156°
2026-04-21 18:51 29.17073 -81.96239 19368 ft 404 kts 156°
2026-04-21 18:52 29.14520 -81.94921 18838 ft 401 kts 156°
2026-04-21 18:52 29.11973 -81.93607 18272 ft 398 kts 156°
2026-04-21 18:52 29.09466 -81.92294 17752 ft 395 kts 153°
2026-04-21 18:52 29.07102 -81.90713 17213 ft 392 kts 146°
2026-04-21 18:53 29.04915 -81.88865 16647 ft 391 kts 140°
2026-04-21 18:53 29.02914 -81.86765 16155 ft 387 kts 136°
2026-04-21 18:53 29.01016 -81.84694 15911 ft 376 kts 136°
2026-04-21 18:53 28.99145 -81.82671 15752 ft 365 kts 137°
2026-04-21 18:54 28.97373 -81.80650 15474 ft 356 kts 131°
2026-04-21 18:54 28.95842 -81.78454 15123 ft 351 kts 127°
2026-04-21 18:54 28.94405 -81.76214 14799 ft 347 kts 126°
2026-04-21 18:54 28.92980 -81.73994 14458 ft 346 kts 127°
2026-04-21 18:55 28.92027 -81.72539 14233 ft 345 kts 127°
2026-04-21 18:55 28.90084 -81.69631 13781 ft 344 kts 128°
2026-04-21 18:55 28.88626 -81.67471 13434 ft 342 kts 128°
2026-04-21 18:55 28.87172 -81.65321 13104 ft 340 kts 128°
2026-04-21 18:56 28.85732 -81.63190 12764 ft 338 kts 128°
2026-04-21 18:56 28.84298 -81.61069 12440 ft 337 kts 128°
2026-04-21 18:56 28.82891 -81.58990 12140 ft 333 kts 128°
2026-04-21 18:56 28.81466 -81.56884 11789 ft 330 kts 128°
2026-04-21 18:57 28.80073 -81.54872 11452 ft 321 kts 133°
2026-04-21 18:57 28.78334 -81.53366 11245 ft 308 kts 152°
2026-04-21 18:57 28.76442 -81.52238 10873 ft 307 kts 153°
2026-04-21 18:57 28.74550 -81.51129 10555 ft 305 kts 153°
2026-04-21 18:58 28.72707 -81.50045 10256 ft 302 kts 153°
2026-04-21 18:58 28.70852 -81.48945 9955 ft 299 kts 153°
2026-04-21 18:58 28.69015 -81.47852 9669 ft 296 kts 153°
2026-04-21 18:58 28.67210 -81.46773 9444 ft 291 kts 153°
2026-04-21 18:59 28.65414 -81.45699 9097 ft 290 kts 153°
2026-04-21 18:59 28.63628 -81.44632 8807 ft 288 kts 153°
2026-04-21 18:59 28.61858 -81.43572 8521 ft 286 kts 153°
2026-04-21 18:59 28.60080 -81.42711 8202 ft 268 kts 169°
2026-04-21 19:00 28.58301 -81.42486 7975 ft 249 kts 176°
2026-04-21 19:00 28.56585 -81.42358 7730 ft 247 kts 179°
2026-04-21 19:00 28.54876 -81.42350 7641 ft 243 kts 181°
2026-04-21 19:00 28.53219 -81.42367 7533 ft 234 kts 181°
2026-04-21 19:01 28.51626 -81.42383 7436 ft 225 kts 181°
2026-04-21 19:01 28.50118 -81.42393 7085 ft 215 kts 181°
2026-04-21 19:01 28.48640 -81.42401 6680 ft 211 kts 181°
2026-04-21 19:01 28.47187 -81.42406 6439 ft 207 kts 180°
2026-04-21 19:02 28.45743 -81.42410 6237 ft 208 kts 180°
2026-04-21 19:02 28.44296 -81.42413 6021 ft 208 kts 180°
2026-04-21 19:02 28.42850 -81.42414 5824 ft 207 kts 180°
2026-04-21 19:02 28.41429 -81.42416 5611 ft 206 kts 180°
2026-04-21 19:03 28.39999 -81.42415 5394 ft 206 kts 180°
2026-04-21 19:03 28.38554 -81.42416 5258 ft 205 kts 180°
2026-04-21 19:03 28.37132 -81.42417 5013 ft 207 kts 180°
2026-04-21 19:03 28.35707 -81.42417 4792 ft 203 kts 180°
2026-04-21 19:04 28.34305 -81.42354 4573 ft 201 kts 166°
2026-04-21 19:04 28.33152 -81.41521 4350 ft 202 kts 127°
2026-04-21 19:04 28.32440 -81.40128 4211 ft 206 kts 118°
2026-04-21 19:04 28.31771 -81.38690 3974 ft 205 kts 118°
2026-04-21 19:05 28.31118 -81.37274 3781 ft 201 kts 118°
2026-04-21 19:05 28.30478 -81.35883 3559 ft 196 kts 118°
2026-04-21 19:05 28.29853 -81.34525 3367 ft 192 kts 118°
2026-04-21 19:05 28.29242 -81.33195 3185 ft 189 kts 118°
2026-04-21 19:06 28.28638 -81.31877 2993 ft 187 kts 115°
2026-04-21 19:06 28.28434 -81.30484 2769 ft 180 kts 79°
2026-04-21 19:06 28.28976 -81.29216 2534 ft 180 kts 39°
2026-04-21 19:06 28.30050 -81.28652 2426 ft 171 kts 15°
2026-04-21 19:07 28.31214 -81.28371 2166 ft 170 kts
2026-04-21 19:07 28.32379 -81.28224 1972 ft 167 kts
2026-04-21 19:07 28.33524 -81.28153 1743 ft 160 kts
2026-04-21 19:07 28.34596 -81.28156 1523 ft 150 kts 359°
2026-04-21 19:08 28.35633 -81.28169 1346 ft 148 kts 359°
2026-04-21 19:08 28.36659 -81.28180 1149 ft 148 kts 359°
2026-04-21 19:08 28.37686 -81.28187 954 ft 148 kts 359°
2026-04-21 19:08 28.38720 -81.28205 739 ft 148 kts 358°
2026-04-21 19:09 28.39759 -81.28215 528 ft 150 kts
2026-04-21 19:09 28.40780 -81.28221 322 ft 143 kts 358°
2026-04-21 19:09 28.41753 -81.28233 153 ft 139 kts 360°
2026-04-21 19:09 28.42699 -81.28242 106 ft 128 kts 359°
2026-04-21 19:10 28.43443 -81.28248 102 ft 81 kts 360°
2026-04-21 19:10 28.43762 -81.28252 107 ft 26 kts 359°
2026-04-21 19:10 28.43818 -81.28281 107 ft 14 kts 315°
2026-04-21 19:10 28.43868 -81.28350 107 ft 0 kts 285°